CAPE
1191 1070 1185 1330 1189 1066 904 703 567 542 643 757 896 804 827 886 874 502 326 132 5 5 2 0 0 0 0 0 0 0 0 0 0 0 0 0 0 0 0 61 129 215 299
1333 1192 1312 1436 1284 1121 810 747 920 1063 1041 973 967 1079 1031 902 853 551 278 83 6 3 0 0 0 0 0 0 0 0 0 0 0 0 28 3 0 0 0 0 0 72 138
1309 1336 1373 1434 1144 1173 858 676 676 838 770 786 867 786 591 411 872 507 363 159 62 5 4 0 0 0 0 0 0 0 0 0 0 11 15 28 0 0 1 0 0 1 1
1204 1308 1459 1337 1086 1082 923 863 888 903 806 525 333 242 471 894 738 568 507 291 89 3 3 3 0 0 0 0 0 0 0 0 0 0 8 28 7 3 23 3 0 0 0
755 1325 1361 1278 1167 954 849 921 978 863 642 434 306 276 390 756 717 555 407 57 0 0 0 0 0 0 0 0 0 0 0 0 0 4 8 44 40 47 39 16 0 0 0
619 1393 1272 1167 1055 1142 1036 881 977 947 841 700 647 685 551 445 548 588 251 10 0 0 0 0 0 0 0 0 0 0 0 0 0 0 14 1 12 35 24 19 7 1 0
456 1254 1282 1103 1144 1001 804 676 704 795 727 762 733 814 557 394 443 343 278 15 0 0 0 0 0 0 0 0 0 0 0 0 0 0 0 0 0 1 4 6 9 5 5
659 900 1130 1076 1129 1147 991 765 817 715 683 566 569 583 447 258 245 220 37 0 0 0 0 0 0 0 0 0 0 0 0 0 0 0 0 0 0 0 0 0 0 1 2
35 410 784 880 750 862 942 891 965 853 657 470 487 361 408 250 191 78 47 0 0 0 0 0 0 0 0 0 0 0 0 0 0 0 0 0 0 0 0 0 0 0 0
0 0 0 53 360 506 792 699 664 743 754 626 561 456 340 267 48 0 0 0 2 0 0 0 0 0 0 0 0 0 0 0 0 0 0 0 0 0 0 0 0 0 0
0 0 0 0 0 92 309 476 563 580 690 681 520 386 304 385 113 0 2 5 9 10 3 0 0 0 0 0 0 0 0 0 0 0 0 0 0 0 0 0 0 0 0
0 0 0 0 0 0 0 109 260 369 647 749 644 576 399 416 380 20 0 1 10 12 8 1 0 0 0 0 0 0 0 0 0 0 0 0 0 0 0 0 0 0 0
0 0 0 0 0 0 0 17 145 407 557 409 491 428 404 249 57 16 0 2 3 16 6 0 0 0 0 0 0 0 0 0 0 0 0 0 0 0 0 0 0 1 2
0 0 0 0 0 0 0 0 24 124 193 76 63 104 232 52 25 21 19 37 29 15 14 1 0 0 0 0 0 0 0 0 0 0 0 0 0 0 0 0 0 5 14
0 0 0 0 0 0 0 6 6 0 0 0 0 0 0 0 0 2 1 0 1 0 5 0 0 0 0 0 0 0 0 0 0 0 0 0 0 0 0 0 0 0 0
0 0 0 0 0 0 0 0 0 0 0 0 0 0 1 0 0 0 0 0 0 0 0 0 0 0 0 0 0 0 0 0 0 0 0 0 0 0 0 0 0 0 0
0 0 0 0 0 0 0 0 0 0 0 0 0 0 0 0 0 0 0 1 1 1 0 0 0 0 0 0 0 0 0 0 0 0 0 0 0 0 0 0 0 0 0
0 0 0 0 0 0 0 0 0 0 0 0 0 0 0 0 0 0 0 0 0 0 0 0 0 0 0 0 0 0 0 0 0 0 0 0 0 0 0 0 0 0 0
0 0 0 0 0 0 0 0 0 0 0 0 0 0 0 0 0 0 0 0 0 0 0 0 0 0 0 0 0 0 0 0 0 0 0 0 0 0 0 0 0 0 0
0 0 0 0 0 0 0 0 0 0 0 0 0 0 0 0 0 0 0 0 0 0 0 0 0 0 0 0 0 0 0 0 0 0 0 0 0 0 0 0 0 0 0
0 0 0 0 0 0 0 0 0 0 0 0 0 0 0 0 0 0 0 0 0 0 0 0 0 0 0 0 0 0 0 0 0 0 0 0 0 0 0 0 0 0 0
0 0 0 0 0 0 0 0 0 0 0 0 0 0 0 0 0 0 0 0 0 0 0 0 0 0 0 0 0 0 0 0 0 0 0 0 0 0 0 0 0 0 0
0 0 0 0 0 0 0 0 0 0 0 0 0 0 0 0 0 0 0 0 0 0 0 0 0 0 0 0 0 0 0 0 0 0 0 0 0 0 0 0 0 0 0
0 0 0 0 0 0 0 0 0 0 0 0 0 0 0 0 0 0 0 0 0 0 0 0 0 0 0 0 0 0 0 0 0 0 0 0 0 0 0 0 0 0 0
0 0 0 0 0 0 0 0 0 0 0 0 0 0 0 0 0 0 0 0 0 0 0 0 0 0 0 0 0 0 0 0 0 0 0 0 0 0 0 0 0 0 0
0 0 0 0 0 0 0 0 0 0 0 0 0 0 0 0 0 0 0 0 0 0 0 0 0 0 0 0 0 0 0 0 0 0 0 0 0 0 0 0 0 0 0
CIN
-18 -59 -35 -22 -24 -21 -31 -43 -52 -49 -39 -24 -2 -0 -0 -0 -0 -3 -8 -29 -52 -0 -0 -0 -0 -0 -0 -0 -0 -0 -0 -0 -0 -0 -0 -0 -0 -0 -0 -5 -0 -0 -3
-30 -49 -29 -7 -13 -23 -41 -40 -23 -8 -8 -13 -3 -1 -0 -0 -0 -0 -9 -36 -26 -0 -0 -0 -0 -0 -0 -0 -0 -0 -0 -0 -0 -0 -27 -6 -0 -0 -0 -0 -0 -1 -0
-11 -26 -13 -6 -16 -12 -37 -50 -49 -29 -30 -19 -5 -2 -4 -12 -0 -5 -0 -9 -27 -81 -0 -0 -0 -0 -0 -0 -0 -0 -0 -0 -0 -25 -13 -23 -4 -0 -0 -0 -0 -0 -0
-7 -16 -2 -6 -19 -16 -19 -18 -15 -15 -16 -34 -43 -50 -11 -0 -0 -3 -2 -3 -46 -0 -0 -0 -0 -0 -0 -0 -0 -0 -0 -0 -0 -3 -13 -8 -12 -0 -5 -0 -0 -0 -0
-27 -3 -12 -7 -8 -13 -23 -14 -8 -10 -25 -37 -47 -42 -20 -1 -4 -0 -1 -78 -0 -0 -0 -0 -0 -0 -0 -0 -0 -0 -0 -0 -0 -11 -6 -89 -54 -36 -33 -0 -0 -0 -0
-56 -9 -21 -12 -10 -6 -8 -9 -5 -6 -9 -12 -9 -2 -5 -6 -1 -0 -15 -81 -0 -0 -0 -0 -0 -0 -0 -0 -0 -0 -0 -0 -0 -0 -19 -5 -16 -75 -0 -0 -0 -0 -0
-105 -31 -21 -18 -7 -6 -13 -23 -19 -8 -5 -3 -2 -0 -2 -10 -4 -16 -29 -187 -0 -0 -0 -0 -0 -0 -0 -0 -0 -0 -0 -0 -0 -0 -0 -0 -0 -1 -0 -0 -0 -0 -0
-85 -35 -20 -15 -7 -2 -4 -9 -7 -10 -9 -11 -7 -3 -8 -24 -26 -40 -142 -0 -0 -0 -0 -0 -0 -0 -0 -0 -0 -0 -0 -0 -0 -0 -0 -0 -0 -0 -0 -0 -0 -0 -0
-54 -133 -45 -28 -30 -11 -7 -5 -2 -4 -7 -12 -9 -13 -9 -30 -51 -131 -151 -0 -0 -0 -0 -0 -0 -0 -0 -0 -0 -0 -0 -0 -0 -0 -0 -0 -0 -0 -0 -0 -0 -0 -0
-0 -0 -0 -286 -98 -62 -13 -15 -13 -10 -5 -3 -6 -10 -16 -35 -143 -0 -0 -0 -26 -1 -0 -0 -0 -0 -0 -0 -0 -0 -0 -0 -0 -0 -0 -0 -0 -0 -0 -0 -0 -0 -0
-0 -0 -0 -0 -0 -213 -96 -60 -32 -16 -8 -5 -8 -19 -36 -14 -81 -0 -16 -25 -26 -40 -61 -28 -0 -0 -0 -0 -0 -0 -0 -0 -0 -0 -0 -0 -0 -0 -0 -0 -0 -0 -0
-0 -0 -0 -0 -0 -0 -8 -158 -58 -19 -6 -8 -9 -8 -13 -6 -2 -129 -0 -31 -52 -51 -60 -57 -0 -0 -0 -0 -0 -0 -0 -0 -0 -0 -0 -0 -0 -0 -0 -0 -0 -0 -0
-0 -0 -0 -0 -0 -0 -0 -273 -116 -26 -4 -4 -3 -3 -2 -11 -64 -164 -0 -50 -68 -46 -71 -5 -0 -0 -0 -0 -0 -0 -0 -0 -0 -0 -0 -0 -0 -0 -0 -0 -0 -0 -0
-0 -0 -0 -0 -0 -0 -0 -0 -185 -86 -61 -135 -129 -84 -22 -59 -94 -13 -13 -4 -28 -32 -41 -87 -0 -0 -0 -0 -0 -0 -0 -0 -0 -0 -0 -0 -0 -0 -0 -0 -0 -0 -0
-0 -0 -0 -0 -0 -0 -0 -51 -90 -5 -0 -0 -0 -0 -0 -1 -0 -0 -0 -0 -18 -0 -43 -0 -0 -0 -0 -0 -0 -0 -0 -0 -0 -0 -0 -0 -0 -0 -0 -0 -0 -0 -0
-0 -0 -0 -0 -0 -0 -0 -0 -0 -0 -0 -0 -0 -0 -0 -0 -0 -0 -0 -0 -0 -0 -0 -0 -0 -0 -0 -0 -0 -0 -0 -0 -0 -0 -0 -0 -0 -0 -0 -0 -0 -0 -0
-0 -0 -0 -0 -0 -0 -0 -0 -0 -0 -0 -0 -0 -0 -0 -0 -0 -0 -0 -0 -0 -0 -0 -0 -0 -0 -0 -0 -0 -0 -0 -0 -0 -0 -0 -0 -0 -0 -0 -0 -0 -0 -0
-0 -0 -0 -0 -0 -0 -0 -0 -0 -0 -0 -0 -0 -0 -0 -0 -0 -0 -0 -0 -0 -0 -0 -0 -0 -0 -0 -0 -0 -0 -0 -0 -0 -0 -0 -0 -0 -0 -0 -0 -0 -0 -0
-0 -0 -0 -0 -0 -0 -0 -0 -0 -0 -0 -0 -0 -0 -0 -0 -0 -0 -0 -0 -0 -0 -0 -0 -0 -0 -0 -0 -0 -0 -0 -0 -0 -0 -0 -0 -0 -0 -0 -0 -0 -0 -0
-0 -0 -0 -0 -0 -0 -0 -0 -0 -0 -0 -0 -0 -0 -0 -0 -0 -0 -0 -0 -0 -0 -0 -0 -0 -0 -0 -0 -0 -0 -0 -0 -0 -0 -0 -0 -0 -0 -0 -0 -0 -0 -0
-0 -0 -0 -0 -0 -0 -0 -0 -0 -0 -0 -0 -0 -0 -0 -0 -0 -0 -0 -0 -0 -0 -0 -0 -0 -0 -0 -0 -0 -0 -0 -0 -0 -0 -0 -0 -0 -0 -0 -0 -0 -0 -0
-0 -0 -0 -0 -0 -0 -0 -0 -0 -0 -0 -0 -0 -0 -0 -0 -0 -0 -0 -0 -0 -0 -0 -0 -0 -0 -0 -0 -0 -0 -0 -0 -0 -0 -0 -0 -0 -0 -0 -0 -0 -0 -0
-0 -0 -0 -0 -0 -0 -0 -0 -0 -0 -0 -0 -0 -0 -0 -0 -0 -0 -0 -0 -0 -0 -0 -0 -0 -0 -0 -0 -0 -0 -0 -0 -0 -0 -0 -0 -0 -0 -0 -0 -0 -0 -0
-0 -0 -0 -0 -0 -0 -0 -0 -0 -0 -0 -0 -0 -0 -0 -0 -0 -0 -0 -0 -0 -0 -0 -0 -0 -0 -0 -0 -0 -0 -0 -0 -0 -0 -0 -0 -0 -0 -0 -0 -0 -0 -0
-0 -0 -0 -0 -0 -0 -0 -0 -0 -0 -0 -0 -0 -0 -0 -0 -0 -0 -0 -0 -0 -0 -0 -0 -0 -0 -0 -0 -0 -0 -0 -0 -0 -0 -0 -0 -0 -0 -0 -0 -0 -0 -0
-0 -0 -0 -0 -0 -0 -0 -0 -0 -0 -0 -0 -0 -0 -0 -0 -0 -0 -0 -0 -0 -0 -0 -0 -0 -0 -0 -0 -0 -0 -0 -0 -0 -0 -0 -0 -0 -0 -0 -0 -0 -0 -0
Wind_Speed
22 24 24 23 22 16 14 14 15 16 17 17 18 19 18 18 19 20 22 23 23 23 23 22 21 21 21 21 21 21 21 21 21 21 22 22 22 22 22 22 22 22 22
21 22 24 24 23 23 22 21 19 18 18 17 17 18 18 18 19 20 21 22 23 23 23 23 22 22 21 21 21 21 21 21 21 21 20 22 22 22 22 22 21 21 22
22 24 23 23 22 22 22 22 22 22 22 22 20 18 18 18 19 20 21 22 23 23 24 23 23 23 23 22 22 21 21 20 20 21 22 19 21 21 21 21 21 21 20
20 22 23 23 22 21 20 19 19 20 20 20 20 20 20 20 19 20 20 22 23 24 24 23 23 23 23 23 23 22 21 20 20 21 21 21 21 21 21 21 21 21 20
18 20 19 21 21 20 20 20 19 18 18 19 19 19 20 19 20 20 20 22 23 24 25 24 23 24 24 23 23 22 22 21 21 22 22 21 22 22 21 22 22 21 21
19 15 18 17 18 18 17 17 17 17 17 17 18 18 18 19 19 19 19 21 22 24 25 25 24 24 24 24 24 23 22 22 23 21 22 22 22 23 22 22 22 22 22
18 17 16 16 17 16 15 15 15 15 15 16 16 16 17 18 18 19 19 20 21 23 24 25 25 25 24 24 24 23 22 23 23 21 22 23 23 23 23 23 23 23 22
15 14 16 16 16 16 15 15 15 14 13 14 14 15 15 16 17 18 19 19 20 22 23 24 25 25 24 24 23 23 22 23 22 22 22 22 23 23 23 23 23 23 23
13 13 13 14 13 13 13 14 13 13 13 13 13 13 14 14 15 16 17 18 19 20 22 23 24 24 24 24 23 23 22 23 22 22 22 23 24 24 24 24 24 23 23
15 15 15 14 13 8 12 12 10 8 9 10 10 11 12 12 13 14 15 16 17 18 20 21 23 24 24 23 23 23 23 23 22 22 22 23 24 24 24 24 24 24 23
15 16 16 16 16 11 8 9 7 7 7 8 8 9 10 10 10 12 14 15 17 18 19 21 23 23 23 23 23 23 23 22 22 21 23 24 25 25 25 25 25 24 23
17 16 17 17 17 17 10 7 7 7 7 7 7 7 7 8 9 11 12 14 15 17 19 20 22 22 22 22 23 23 23 22 22 21 23 24 24 25 25 25 25 24 24
17 18 19 19 18 16 16 9 8 8 8 10 12 14 10 12 12 12 12 13 14 16 17 19 21 22 22 23 23 23 23 22 22 22 22 24 24 24 25 26 25 25 24
18 19 19 20 19 17 16 11 12 14 15 15 15 16 15 13 13 13 13 13 17 16 17 18 20 21 22 21 22 23 23 23 23 22 22 24 24 25 25 25 25 25 25
19 20 21 21 20 17 12 12 12 13 13 14 15 17 16 15 16 15 16 18 19 18 19 18 20 20 21 22 23 23 23 24 25 25 24 25 25 26 26 26 27 27 27
18 20 20 19 19 13 12 11 10 11 12 13 15 16 17 16 16 17 18 19 20 19 18 19 21 21 21 22 23 23 24 25 26 25 25 25 25 26 27 28 28 28 29
17 17 18 17 16 13 12 11 11 11 11 12 14 16 16 16 15 16 18 19 20 20 19 20 22 22 23 24 24 24 25 26 26 25 25 26 27 28 27 30 30 30 30
15 16 16 15 14 12 11 11 11 11 12 14 15 16 17 17 18 18 19 20 20 20 20 21 22 23 24 25 26 26 26 25 25 24 25 26 27 28 29 30 31 30 32
14 14 13 13 12 11 11 12 12 13 14 15 15 16 17 17 18 18 19 19 20 21 21 22 23 24 26 26 25 23 24 24 24 24 23 25 26 27 29 30 31 32 33
13 12 11 11 10 10 10 11 12 13 14 15 16 17 18 18 18 19 20 20 21 22 23 22 23 24 26 27 23 24 20 22 23 23 24 25 26 29 30 31 33 33 33
12 11 9 8 8 8 8 9 10 11 13 15 16 17 18 18 18 19 20 21 22 23 24 24 23 25 29 29 24 24 23 23 24 24 24 26 29 32 31 31 34 34 34
11 9 8 6 6 7 8 9 10 10 13 14 16 17 18 19 19 20 20 21 22 23 25 26 25 25 28 31 27 24 27 25 29 24 27 29 31 33 36 33 37 35 35
8 7 6 5 7 7 7 7 9 10 12 13 15 16 18 19 19 20 21 21 22 23 25 27 27 28 28 29 31 27 30 31 32 28 30 33 36 36 38 36 41 36 38
8 6 4 5 5 6 5 5 6 8 9 11 13 14 16 18 19 20 21 21 23 24 25 26 27 29 28 30 27 29 29 30 34 38 34 34 41 38 38 40 39 39 40
6 5 5 5 5 4 4 4 6 7 8 10 12 14 15 17 18 19 20 21 24 25 26 27 28 29 29 29 30 30 30 30 32 36 44 45 41 42 40 39 40 40 40
5 5 5 5 6 5 4 5 4 5 6 8 10 12 14 16 17 18 19 22 23 25 26 26 27 29 29 30 30 31 31 33 35 37 40 46 48 42 42 39 39 41 42
Wind_Direction
102 108 112 107 95 66 47 42 40 40 38 34 34 36 25 22 28 25 21 18 18 19 17 12 6 3 0 358 359 1 4 3 5 8 14 12 5 3 3 4 9 10 11
89 104 112 110 104 99 92 79 64 56 51 40 33 28 28 20 27 23 22 19 19 17 15 12 8 3 360 359 358 354 357 357 356 3 13 8 8 4 4 2 1 3 8
97 109 115 108 102 96 94 94 89 86 81 76 53 28 23 22 27 28 28 28 23 12 9 8 6 5 2 359 358 358 355 346 338 334 343 18 8 4 3 3 0 1 359
87 104 116 120 112 98 89 85 81 79 79 78 73 57 48 41 33 25 32 25 17 14 7 5 3 2 1 1 1 358 351 343 333 328 359 0 4 1 359 3 1 359 357
74 96 95 107 107 106 106 99 88 82 74 71 66 61 53 44 43 38 34 28 20 17 14 13 10 8 6 3 0 356 354 347 331 352 8 5 2 2 1 5 5 1 358
79 62 92 98 101 98 92 92 95 90 87 80 67 61 50 45 39 42 38 29 25 18 14 15 13 11 9 7 5 2 359 350 350 359 10 1 356 353 355 356 357 356 353
66 73 90 102 106 100 91 93 94 94 86 77 72 60 52 48 43 30 32 29 21 19 16 14 12 12 11 11 8 6 2 353 355 0 6 1 353 351 352 351 349 349 348
27 27 76 108 109 114 118 121 125 103 90 75 68 58 56 47 46 41 36 34 29 24 18 14 11 9 7 6 5 3 1 356 4 1 5 1 351 354 352 350 348 346 344
333 345 3 86 112 114 115 131 122 118 102 98 91 80 72 59 51 42 35 32 29 27 22 17 15 14 11 7 3 2 357 352 356 355 355 352 348 350 350 350 348 346 344
15 5 348 344 0 52 132 139 108 66 57 87 75 65 62 57 46 42 36 36 31 26 21 15 12 10 9 7 3 360 355 353 355 357 352 347 344 344 344 344 344 344 344
358 352 345 330 320 22 82 23 91 87 53 60 56 51 45 48 47 43 34 31 28 22 18 15 11 11 9 5 1 357 355 353 353 354 350 344 343 343 342 340 340 340 342
336 343 337 328 326 322 18 66 83 93 108 115 111 82 75 69 69 53 42 33 27 19 15 9 5 3 4 6 4 360 355 350 349 350 347 344 342 340 339 338 338 338 338
333 332 328 324 325 330 318 20 39 48 43 26 10 1 35 35 44 40 38 32 24 19 15 9 5 3 2 359 357 356 355 355 352 348 344 341 339 338 337 336 335 335 334
327 331 332 324 318 321 318 344 343 333 323 336 341 344 2 21 27 20 24 27 13 13 11 9 7 5 1 0 357 355 354 351 348 347 347 344 340 336 334 333 333 332 331
323 325 323 321 314 323 343 343 341 342 346 343 341 340 344 354 358 4 3 0 360 1 1 4 4 2 360 354 353 353 350 346 343 340 339 339 338 336 334 332 329 327 324
332 327 325 324 323 344 348 358 358 359 4 1 357 355 355 0 2 1 0 360 357 359 3 2 357 357 356 355 352 347 345 342 341 341 338 336 336 335 333 331 328 326 323
341 339 333 332 338 350 353 1 5 11 9 4 358 356 360 2 6 5 1 356 356 357 358 358 356 354 352 350 348 347 343 339 339 338 338 336 335 333 332 329 326 324 322
344 343 346 349 352 359 5 11 13 13 6 3 5 7 8 8 6 4 2 0 0 360 358 357 355 353 351 347 344 341 343 344 341 343 343 340 338 335 333 331 328 326 322
341 347 354 356 0 10 17 23 25 22 19 19 18 17 16 20 19 16 11 7 4 3 1 0 356 353 351 350 349 349 348 350 349 350 352 351 349 346 341 337 333 327 323
335 344 353 5 14 24 29 27 27 18 12 11 12 16 10 11 14 14 12 9 7 2 0 360 360 358 353 349 351 351 358 354 353 352 351 351 348 345 343 339 338 333 329
328 335 344 9 22 22 18 18 15 12 16 14 14 12 11 13 17 17 17 16 12 9 5 4 5 0 355 352 352 349 349 347 344 344 346 343 339 339 339 337 337 334 332
316 327 338 355 3 345 347 0 3 17 20 20 16 15 14 15 16 16 16 16 13 13 10 6 1 356 355 353 345 340 331 330 334 336 337 334 333 332 329 329 330 328 329
312 313 322 331 331 339 353 16 24 27 23 19 17 19 17 18 19 18 17 16 16 13 6 2 359 355 349 350 350 340 328 323 324 323 325 327 327 326 324 324 323 323 323
302 312 319 325 332 339 3 15 13 9 10 16 27 26 21 17 16 15 14 14 11 5 1 358 356 354 350 345 343 342 336 327 319 313 316 319 322 321 320 320 319 319 319
287 289 301 315 327 342 351 3 8 11 19 27 26 21 18 18 14 13 11 9 4 1 360 357 355 352 350 346 342 336 332 328 326 317 312 312 318 320 320 318 318 317 316
275 279 286 295 310 335 7 16 16 28 21 15 11 12 10 8 8 10 8 3 0 358 355 354 352 350 347 345 342 338 333 327 323 320 316 314 312 316 317 320 319 319 316